This is the latest recevied weather packets stored in our database for station/object AC4AG. If no packets are shown the sender has not sent any weather packets the latest 10 day(s).
| Time | Temp. | Humidity | Pressure | Rain* | Wind** | Luminosity | Snow |
|---|---|---|---|---|---|---|---|
| 1777674925 | 15° C | 50% | 1012.6 hPa | 0 mm | - | 247 W/m² | - |
| 1777674621 | 15° C | 49% | 1012.5 hPa | 0 mm | - | 216 W/m² | - |
| 1777674318 | 15.56° C | 49% | 1012.9 hPa | 0 mm | - | 175 W/m² | - |
| 1777674015 | 16.11° C | 49% | 1012.5 hPa | 0 mm | - | 230 W/m² | - |
| 1777673711 | 16.11° C | 51% | 1012.6 hPa | 0 mm | - | 305 W/m² | - |
| 1777673409 | 15.56° C | 52% | 1012.7 hPa | 0 mm | - | 373 W/m² | - |
| 1777673107 | 15.56° C | 52% | 1012.6 hPa | 0 mm | - | 315 W/m² | - |
| 1777672803 | 15.56° C | 51% | 1012.7 hPa | 0 mm | - | 323 W/m² | - |
| 1777672499 | 15° C | 53% | 1012.5 hPa | 0 mm | - | 398 W/m² | - |
| 1777672195 | 15° C | 55% | 1012.9 hPa | 0 mm | - | 381 W/m² | - |
| 1777671890 | 15° C | 55% | 1012.5 hPa | 0 mm | - | 220 W/m² | - |
| 1777671586 | 15° C | 56% | 1012.9 hPa | 0 mm | - | 279 W/m² | - |
| 1777671284 | 15.56° C | 58% | 1013 hPa | 0 mm | - | 426 W/m² | - |
| 1777670978 | 15.56° C | 57% | 1012.9 hPa | 0 mm | - | 357 W/m² | - |
| 1777670676 | 15° C | 60% | 1012.8 hPa | 0 mm | - | 380 W/m² | - |
| 1777670372 | 14.44° C | 61% | 1012.9 hPa | 0 mm | - | 152 W/m² | - |
| 1777670070 | 14.44° C | 61% | 1013 hPa | 0 mm | - | 142 W/m² | - |
| 1777669767 | 15° C | 61% | 1013 hPa | 0 mm | - | 135 W/m² | - |
| 1777669464 | 15.56° C | 58% | 1012.8 hPa | 0 mm | - | 212 W/m² | - |
| 1777669161 | 15.56° C | 58% | 1013.1 hPa | 0 mm | - | 270 W/m² | - |
| 1777668858 | 15.56° C | 60% | 1012.7 hPa | 0 mm | - | 292 W/m² | - |
| 1777668555 | 16.11° C | 60% | 1013.2 hPa | 0 mm | - | 702 W/m² | - |
| 1777668250 | 15.56° C | 62% | 1013 hPa | 0 mm | - | 397 W/m² | - |
| 1777667946 | 15° C | 62% | 1013 hPa | 0 mm | - | 349 W/m² | - |
| 1777667644 | 15.56° C | 60% | 1013 hPa | 0 mm | - | 285 W/m² | - |
* Rain latest hour (hover to see other rain measurements)
** Current wind speed in m/s (hover to see current wind gust speed)